This demonstration page uses our WeatherBlox Daily Observations layout. Learn more.

Left ArrowRight Arrow

Hourly Observations for January 8, 2017

Temp ( °F °C ) Dew Point ( °F °C ) Humidity (%) Winds ( mph kmh ) Pressure ( in mb ) Visibility ( mi km ) Precip ( " mm )
12:15 am 00:15 Clear 18 -8 7 -14 62 62 NW 9 15 30.42 1030 10 16 N/A
12:35 am 00:35 Clear 18 -8 7 -14 62 62 WNW 12 19 30.42 1030 10 16 N/A
12:55 am 00:55 Clear 18 -8 7 -14 62 62 NW 15 24 30.42 1030 10 16 N/A
1:16 am 01:16 Clear 18 -8 5 -15 58 58 NW 17 28 30.42 1030 10 16 N/A
1:35 am 01:35 Clear 18 -8 3 -16 53 53 NW 25 41 30.42 1030 10 16 N/A
1:55 am 01:55 Partly Cloudy 18 -8 3 -16 53 53 NW 16 26 30.42 1030 10 16 N/A
2:15 am 02:15 Cloudy 18 -8 3 -16 53 53 NNW 21 33 30.45 1031 10 16 N/A
2:35 am 02:35 Mostly Cloudy 18 -8 1 -17 49 49 NW 16 26 30.45 1031 10 16 N/A
2:55 am 02:55 Partly Cloudy 18 -8 1 -17 49 49 NNW 12 19 30.48 1032 10 16 N/A
3:15 am 03:15 Clear 16 -9 1 -17 53 53 W 9 15 30.48 1032 10 16 N/A
3:35 am 03:35 Clear 16 -9 3 -16 57 57 WNW 14 22 30.48 1032 10 16 N/A
3:55 am 03:55 Clear 16 -9 3 -16 57 57 WNW 17 28 30.48 1032 10 16 N/A
4:15 am 04:15 Clear 16 -9 3 -16 57 57 WNW 13 20 30.48 1032 10 16 N/A
4:36 am 04:36 Clear 16 -9 3 -16 57 57 W 10 17 30.48 1032 10 16 N/A
4:56 am 04:56 Partly Cloudy 16 -9 3 -16 57 57 WNW 13 20 30.48 1032 10 16 N/A
5:15 am 05:15 Clear 16 -9 3 -16 57 57 W 10 17 30.48 1032 10 16 N/A
5:36 am 05:36 Clear 16 -9 3 -16 57 57 undefined N/A 30.48 1032 10 16 N/A
5:56 am 05:56 Clear 16 -9 3 -16 57 57 WNW 18 30 30.48 1032 10 16 N/A
6:16 am 06:16 Clear 14 -10 3 -16 62 62 undefined N/A 30.50 1033 10 16 N/A
6:35 am 06:35 Clear 14 -10 3 -16 62 62 WNW 21 33 30.50 1033 10 16 N/A
6:56 am 06:56 Clear 16 -9 3 -16 57 57 undefined N/A 30.50 1033 10 16 N/A
7:15 am 07:15 Clear 16 -9 3 -16 57 57 undefined N/A 30.50 1033 10 16 N/A
7:36 am 07:36 Sunny 16 -9 3 -16 57 57 undefined N/A 30.53 1034 10 16 N/A
7:57 am 07:57 Sunny 16 -9 3 -16 57 57 WNW 14 22 30.56 1035 10 16 N/A
8:16 am 08:16 Sunny 16 -9 3 -16 57 57 W 13 20 30.56 1035 10 16 N/A
8:36 am 08:36 Sunny 18 -8 5 -15 58 58 WNW 17 28 30.56 1035 10 16 N/A
8:56 am 08:56 Sunny 18 -8 5 -15 58 58 WNW 20 31 30.56 1035 10 16 N/A
9:16 am 09:16 Sunny 18 -8 3 -16 53 53 WNW 21 33 30.56 1035 10 16 N/A
9:36 am 09:36 Sunny 19 -7 5 -15 53 53 WNW 22 35 30.56 1035 10 16 N/A
9:57 am 09:57 Sunny 19 -7 3 -16 49 49 WNW 24 39 30.56 1035 10 16 N/A
10:16 am 10:16 Sunny 21 -6 3 -16 45 45 NW 28 44 30.56 1035 10 16 N/A
10:36 am 10:36 Sunny 21 -6 3 -16 45 45 NW 21 33 30.56 1035 10 16 N/A
10:56 am 10:56 Partly Cloudy 21 -6 3 -16 45 45 WNW 22 35 30.56 1035 10 16 N/A
11:15 am 11:15 Partly Cloudy 21 -6 3 -16 45 45 WNW 29 46 30.56 1035 10 16 N/A
11:36 am 11:36 Partly Cloudy 21 -6 3 -16 45 45 WNW 23 37 30.56 1035 10 16 N/A
11:56 am 11:56 Partly Cloudy 21 -6 3 -16 45 45 WNW 23 37 30.56 1035 10 16 N/A
12:16 pm 12:16 Mostly Cloudy 23 -5 1 -17 39 39 WNW 22 35 30.56 1035 10 16 N/A
12:36 pm 12:36 Partly Cloudy 21 -6 3 -16 45 45 WNW 24 39 30.56 1035 10 16 N/A
12:55 pm 12:55 Partly Cloudy 23 -5 1 -17 39 39 NW 20 31 30.56 1035 10 16 N/A
1:17 pm 13:17 Mostly Cloudy 21 -6 1 -17 42 42 WNW 16 26 30.56 1035 10 16 N/A
1:36 pm 13:36 Cloudy 25 -4 3 -16 39 39 WNW 22 35 30.53 1034 10 16 N/A
1:55 pm 13:55 Mostly Cloudy 25 -4 3 -16 39 39 NW 25 41 30.53 1034 10 16 N/A
2:16 pm 14:16 Partly Cloudy 25 -4 1 -17 36 36 NW 24 39 30.53 1034 10 16 N/A
2:36 pm 14:36 Sunny 25 -4 1 -17 36 36 NW 17 28 30.53 1034 10 16 N/A
2:56 pm 14:56 Partly Cloudy 25 -4 1 -17 36 36 NW 17 28 30.59 1036 10 16 N/A
3:37 pm 15:37 Partly Cloudy 23 -5 1 -17 39 39 NNW 16 26 30.59 1036 10 16 N/A
3:56 pm 15:56 Partly Cloudy 23 -5 1 -17 39 39 NW 18 30 30.59 1036 10 16 N/A
4:16 pm 16:16 Sunny 21 -6 1 -17 42 42 NW 16 26 30.59 1036 10 16 N/A
4:58 pm 16:58 Sunny 21 -6 1 -17 42 42 NNW 8 13 30.62 1037 10 16 N/A
5:16 pm 17:16 Clear 21 -6 1 -17 42 42 NNW 10 17 30.62 1037 10 16 N/A
5:36 pm 17:36 Clear 19 -7 1 -17 45 45 NNW 6 9 30.62 1037 10 16 N/A
5:56 pm 17:56 Clear 19 -7 1 -17 45 45 NW 7 11 30.65 1038 10 16 N/A
6:16 pm 18:16 Clear 18 -8 3 -16 53 53 NW 9 15 30.65 1038 10 16 N/A
6:36 pm 18:36 Clear 18 -8 3 -16 53 53 WNW 7 11 30.65 1038 10 16 N/A
6:56 pm 18:56 Clear 18 -8 1 -17 49 49 NW 5 7 30.68 1039 10 16 N/A
7:16 pm 19:16 Clear 18 -8 1 -17 49 49 WNW 6 9 30.68 1039 10 16 N/A
7:36 pm 19:36 Clear 18 -8 1 -17 49 49 WNW 8 13 30.68 1039 10 16 N/A
7:56 pm 19:56 Clear 18 -8 1 -17 49 49 NW 5 7 30.71 1040 10 16 N/A
8:17 pm 20:17 Clear 18 -8 1 -17 49 49 NW 3 6 30.71 1040 10 16 N/A
8:36 pm 20:36 Clear 18 -8 1 -17 49 49 WNW 8 13 30.71 1040 10 16 N/A
8:57 pm 20:57 Clear 18 -8 1 -17 49 49 WNW 7 11 30.74 1041 10 16 N/A
9:16 pm 21:16 Clear 18 -8 1 -17 49 49 WNW 8 13 30.74 1041 10 16 N/A
9:36 pm 21:36 Clear 18 -8 3 -16 53 53 WNW 10 17 30.74 1041 10 16 N/A
9:56 pm 21:56 Clear 18 -8 1 -17 49 49 W 7 11 30.74 1041 10 16 N/A
10:16 pm 22:16 Clear 16 -9 3 -16 57 57 W 9 15 30.77 1042 10 16 N/A
10:36 pm 22:36 Clear 16 -9 3 -16 57 57 W 7 11 30.77 1042 10 16 N/A
10:56 pm 22:56 Clear 16 -9 3 -16 57 57 WNW 9 15 30.77 1042 10 16 N/A
11:16 pm 23:16 Clear 16 -9 3 -16 57 57 WNW 9 15 30.77 1042 10 16 N/A
11:36 pm 23:36 Clear 16 -9 3 -16 57 57 W 6 9 30.77 1042 10 16 N/A
11:56 pm 23:56 Clear 16 -9 3 -16 57 57 WNW 8 13 30.74 1041 10 16 N/A

Powered by AerisWeather